TimeCST,TemperatureF,Dew PointF,Humidity,Sea Level PressureIn,VisibilityMPH,Wind Direction,Wind SpeedMPH,Gust SpeedMPH,PrecipitationIn,Events,Conditions,WindDirDegrees,DateUTC
12:36 AM,48.2,42.8,82,30.24,10.0,ENE,6.9,-,N/A,,Overcast,60,2012-11-16 06:36:00
12:55 AM,47.3,43.3,86,30.25,10.0,ENE,8.1,-,N/A,,Overcast,70,2012-11-16 06:55:00
1:55 AM,47.3,43.7,87,30.24,10.0,ENE,5.8,-,N/A,,Overcast,70,2012-11-16 07:55:00
2:55 AM,47.3,43.7,87,30.24,10.0,ENE,5.8,-,N/A,,Overcast,70,2012-11-16 08:55:00
3:55 AM,47.3,43.7,87,30.24,10.0,NE,6.9,-,N/A,,Overcast,50,2012-11-16 09:55:00
4:55 AM,47.1,44.6,91,30.24,10.0,NE,4.6,-,N/A,,Overcast,50,2012-11-16 10:55:00
5:52 AM,46.4,44.6,93,30.24,7.0,NE,4.6,-,N/A,,Overcast,40,2012-11-16 11:52:00
5:55 AM,46.8,45.5,95,30.24,7.0,NE,5.8,-,N/A,,Overcast,40,2012-11-16 11:55:00
5:56 AM,46.4,44.6,93,30.24,7.0,NE,4.6,-,N/A,,Overcast,40,2012-11-16 11:56:00
6:02 AM,46.4,46.4,100,30.25,6.0,NE,5.8,-,N/A,,Overcast,40,2012-11-16 12:02:00
6:06 AM,46.4,46.4,100,30.25,5.0,NE,5.8,-,N/A,,Overcast,50,2012-11-16 12:06:00
6:21 AM,46.4,46.4,100,30.25,7.0,NE,6.9,-,N/A,,Overcast,50,2012-11-16 12:21:00
6:24 AM,46.4,46.4,100,30.25,6.0,NE,5.8,-,N/A,,Overcast,50,2012-11-16 12:24:00
6:45 AM,46.4,46.4,100,30.27,8.0,NE,6.9,-,N/A,,Overcast,50,2012-11-16 12:45:00
6:55 AM,46.9,45.7,95,30.27,8.0,NE,4.6,-,N/A,,Overcast,40,2012-11-16 12:55:00
6:57 AM,46.4,46.4,100,30.27,8.0,NE,4.6,-,N/A,,Overcast,40,2012-11-16 12:57:00
7:19 AM,46.4,46.4,100,30.28,8.0,NNE,5.8,-,N/A,,Overcast,30,2012-11-16 13:19:00
7:24 AM,46.4,46.4,100,30.27,9.0,NNE,5.8,-,N/A,,Overcast,30,2012-11-16 13:24:00
7:36 AM,48.2,46.4,93,30.28,10.0,NE,4.6,-,N/A,,Overcast,40,2012-11-16 13:36:00
7:40 AM,48.2,46.4,93,30.28,10.0,NNE,4.6,-,N/A,,Overcast,30,2012-11-16 13:40:00
7:55 AM,47.7,46.0,94,30.28,10.0,NE,6.9,-,N/A,,Overcast,40,2012-11-16 13:55:00
8:00 AM,48.2,46.4,93,30.28,10.0,NE,6.9,-,N/A,,Overcast,50,2012-11-16 14:00:00
8:13 AM,48.2,46.4,93,30.28,10.0,NE,9.2,-,N/A,,Overcast,50,2012-11-16 14:13:00
8:25 AM,48.2,46.4,93,30.29,10.0,NE,8.1,-,N/A,,Overcast,50,2012-11-16 14:25:00
8:48 AM,48.2,46.4,93,30.29,10.0,NE,6.9,-,N/A,,Overcast,40,2012-11-16 14:48:00
8:50 AM,48.2,46.4,93,30.29,10.0,NE,6.9,-,N/A,,Overcast,40,2012-11-16 14:50:00
8:55 AM,48.7,46.2,91,30.29,10.0,NE,8.1,-,N/A,,Overcast,40,2012-11-16 14:55:00
8:58 AM,48.2,46.4,93,30.29,10.0,NE,6.9,-,N/A,,Overcast,50,2012-11-16 14:58:00
8:59 AM,48.2,46.4,93,30.29,10.0,NE,6.9,-,N/A,,Overcast,40,2012-11-16 14:59:00
9:08 AM,50.0,46.4,87,30.29,10.0,NE,8.1,-,N/A,,Overcast,40,2012-11-16 15:08:00
9:27 AM,50.0,46.4,87,30.28,10.0,ENE,9.2,-,N/A,,Overcast,70,2012-11-16 15:27:00
9:55 AM,50.5,45.9,84,30.29,10.0,NE,9.2,-,N/A,,Overcast,40,2012-11-16 15:55:00
10:42 AM,53.6,46.4,77,30.27,10.0,NE,8.1,-,N/A,,Overcast,40,2012-11-16 16:42:00
10:55 AM,53.2,45.9,76,30.27,10.0,ENE,5.8,-,N/A,,Overcast,60,2012-11-16 16:55:00
11:55 AM,56.5,46.9,70,30.25,10.0,Variable,4.6,-,N/A,,Overcast,0,2012-11-16 17:55:00
12:14 PM,57.2,46.4,67,30.24,10.0,Variable,3.5,-,N/A,,Overcast,0,2012-11-16 18:14:00
12:36 PM,60.8,46.4,59,30.23,10.0,Calm,Calm,-,N/A,,Overcast,0,2012-11-16 18:36:00
12:40 PM,59.0,46.4,63,30.22,10.0,Variable,3.5,-,N/A,,Overcast,0,2012-11-16 18:40:00
12:55 PM,60.3,46.6,61,30.22,10.0,NNE,6.9,-,N/A,,Overcast,30,2012-11-16 18:55:00
1:55 PM,63.7,43.3,48,30.21,10.0,Variable,5.8,-,N/A,,Partly Cloudy,0,2012-11-16 19:55:00
2:55 PM,63.9,43.0,47,30.20,10.0,NNE,15.0,-,N/A,,Clear,30,2012-11-16 20:55:00
3:55 PM,62.4,42.3,48,30.20,10.0,NNE,10.4,-,N/A,,Clear,30,2012-11-16 21:55:00
4:55 PM,57.0,43.7,61,30.22,10.0,NNE,5.8,-,N/A,,Clear,30,2012-11-16 22:55:00
5:55 PM,54.9,44.2,67,30.24,10.0,NNE,5.8,-,N/A,,Clear,30,2012-11-16 23:55:00
6:55 PM,50.0,43.0,77,30.25,9.0,NE,4.6,-,N/A,,Clear,40,2012-11-17 00:55:00
7:55 PM,49.1,43.0,79,30.26,8.0,NE,5.8,-,N/A,,Clear,50,2012-11-17 01:55:00
8:55 PM,46.4,41.9,84,30.28,7.0,NE,6.9,-,N/A,,Clear,50,2012-11-17 02:55:00
9:55 PM,46.8,41.7,83,30.28,7.0,NE,5.8,-,N/A,,Clear,40,2012-11-17 03:55:00
10:55 PM,46.8,41.0,80,30.28,9.0,NE,5.8,-,N/A,,Clear,40,2012-11-17 04:55:00
11:55 PM,42.8,39.2,87,30.27,10.0,Calm,Calm,-,N/A,,Clear,0,2012-11-17 05:55:00